Temperature
20 19 19 19 22 23 23 22 22 22 22 21 21 21 22 21 21 20 17 17 17 17 17 17 17 17 17 17 17 17 17 17 17 17 16 16 16 16 16 16 17 17 17 17 17 17 17 17 17
19 20 19 21 23 23 22 22 22 22 21 20 21 21 21 19 18 17 16 17 16 16 16 16 16 17 17 17 17 16 16 16 16 16 16 16 16 16 16 16 16 17 17 17 17 17 17 17 17
20 20 21 23 23 23 22 22 22 21 20 21 20 20 20 18 17 17 16 16 16 16 16 16 16 16 16 16 16 16 16 16 16 16 16 16 16 16 16 16 16 16 16 17 17 17 17 17 17
20 20 22 23 23 22 22 22 21 21 20 20 20 20 18 17 17 16 16 16 16 16 16 16 16 16 16 16 16 16 16 16 16 16 16 16 16 16 16 16 16 16 16 16 16 16 17 17 17
20 22 23 23 22 22 22 21 21 21 21 20 20 20 17 16 16 16 16 16 16 16 16 16 16 16 16 16 16 16 16 16 16 16 16 16 16 16 16 16 16 16 16 16 16 16 16 16 17
21 23 23 22 22 21 21 21 21 21 20 19 19 19 17 16 16 16 16 16 16 16 16 16 16 16 16 16 16 16 16 16 16 16 16 16 16 16 16 16 16 16 16 16 16 16 16 16 16
22 23 23 22 22 21 21 21 21 21 20 19 19 19 17 16 16 16 16 16 16 16 16 16 16 16 16 16 16 16 16 16 16 16 16 16 16 16 16 16 16 16 16 16 16 16 16 16 16
21 23 22 22 22 21 21 20 20 20 20 18 18 19 17 16 16 16 16 16 16 16 16 16 16 16 16 16 16 16 16 16 16 16 16 16 16 16 16 16 16 16 16 16 16 16 16 16 16
21 23 22 22 22 21 21 21 20 19 19 18 18 18 17 16 16 16 16 16 16 16 16 16 16 15 15 15 16 15 16 16 16 15 16 16 15 15 15 15 16 16 16 16 16 16 16 16 16
22 23 22 22 22 22 21 21 20 20 19 19 18 17 16 16 16 16 16 16 16 16 16 16 16 16 16 15 15 15 15 15 15 15 15 15 15 15 15 16 16 16 16 16 16 16 16 15 15
22 22 21 21 21 21 21 20 20 21 20 19 18 17 16 16 16 16 16 16 16 16 16 16 16 16 16 16 16 15 15 15 15 15 15 15 15 15 15 15 15 15 15 15 15 15 15 15 15
22 21 21 21 20 21 21 20 20 20 19 18 18 17 17 17 17 17 16 16 16 16 16 16 16 16 16 16 16 16 16 15 15 15 15 15 15 15 15 15 15 15 15 15 15 15 15 15 15
22 21 20 20 20 20 20 20 19 19 18 18 17 17 17 17 17 17 16 16 16 16 16 16 16 16 16 16 16 16 15 16 15 15 15 15 15 15 15 15 15 15 15 15 15 15 15 15 15
21 20 20 20 20 20 20 20 19 18 17 17 17 17 17 17 17 17 17 16 16 16 16 16 16 16 16 16 16 16 15 15 15 15 15 15 15 15 15 15 15 15 15 15 15 15 15 15 15
20 21 21 20 20 20 20 20 20 18 18 18 17 17 17 17 17 17 17 16 16 16 16 16 16 16 16 16 16 16 16 15 15 15 15 15 15 15 15 15 15 15 15 15 15 15 15 15 15
22 21 21 21 21 20 21 20 20 18 18 18 18 17 17 17 17 17 16 16 16 16 16 16 16 16 16 16 16 16 16 16 15 15 15 15 15 15 15 15 15 15 15 15 15 15 15 15 15
21 21 21 21 21 21 21 20 20 18 18 18 18 18 17 17 17 17 17 16 16 16 16 16 16 16 16 16 16 16 16 16 16 15 15 15 15 15 15 15 15 15 15 15 15 14 15 15 14
21 22 21 21 21 21 21 21 21 19 19 19 18 18 18 18 17 17 17 16 16 16 16 16 16 16 16 16 16 16 16 16 15 15 15 15 15 15 15 15 15 15 15 14 14 14 14 14 14
22 22 21 21 21 21 21 21 21 20 19 19 19 19 19 18 18 17 17 17 16 16 16 16 16 16 16 16 15 15 15 15 15 15 15 15 15 15 15 15 15 15 15 14 14 14 14 14 14
22 21 21 21 21 21 21 21 22 21 20 20 19 19 19 19 18 17 17 17 17 17 16 16 16 16 16 16 16 15 15 15 15 15 15 15 15 15 15 15 15 15 15 15 14 14 14 14 14
22 22 21 21 21 21 21 21 22 21 20 19 19 19 19 19 19 18 17 17 17 17 16 16 16 16 16 16 16 15 15 15 15 15 15 15 15 15 15 15 15 15 15 15 15 14 14 14 14
21 22 21 21 21 22 22 22 22 22 21 20 20 19 19 19 18 18 17 17 17 17 17 16 16 16 16 16 16 16 15 15 15 15 15 15 15 15 15 15 15 15 15 15 15 14 14 14 14
21 21 21 21 22 22 22 22 23 22 22 21 21 20 19 19 19 18 17 17 17 17 17 17 16 16 16 16 16 16 15 15 15 15 15 15 15 15 15 15 15 15 15 15 15 15 15 14 14
21 21 21 22 22 22 22 22 22 23 23 23 22 21 20 19 19 18 18 17 17 17 17 17 17 16 16 16 16 16 16 15 15 15 15 15 15 15 15 15 15 15 15 15 15 15 15 14 14
21 21 21 21 21 22 22 22 23 24 24 23 23 22 20 20 19 18 18 17 17 17 17 17 17 17 16 16 16 16 16 15 15 15 15 15 15 15 15 15 15 15 15 15 15 15 14 14 14
22 22 21 21 21 22 22 22 24 24 23 22 22 21 20 20 19 18 18 17 17 17 17 17 17 17 16 16 16 16 16 15 15 15 15 15 15 15 15 15 15 15 15 15 15 14 14 14 14
22 22 22 22 22 22 23 23 24 24 23 23 22 21 21 20 19 18 18 18 17 17 17 17 17 17 17 16 16 16 16 16 16 15 15 15 15 15 15 15 15 15 15 15 14 14 14 14 14
23 23 22 22 21 21 22 23 23 24 24 23 23 22 21 20 19 19 18 18 18 17 17 17 17 17 17 16 16 16 16 16 16 15 15 15 15 15 15 15 15 15 15 15 14 14 14 14 14
22 22 22 22 22 22 22 23 24 24 23 23 23 22 21 20 19 19 18 18 18 17 17 17 17 17 17 16 16 16 16 16 16 16 16 15 15 15 15 15 15 15 15 14 15 14 14 14 14
23 23 23 22 22 22 22 23 24 24 23 23 22 22 21 20 19 19 18 18 18 18 17 17 17 17 17 17 16 16 16 16 16 16 15 15 15 15 15 15 15 15 14 14 14 14 14 14 14
Wind_Speed
3 3 3 3 3 2 3 3 3 3 4 4 5 4 5 5 4 4 4 4 5 5 6 7 8 8 9 10 11 11 11 11 10 10 9 9 9 9 9 9 8 8 8 8 7 7 7 8 8
1 2 2 2 2 2 4 4 5 5 5 6 6 6 6 6 6 5 4 5 6 6 6 7 9 8 9 10 11 11 11 10 10 10 9 9 9 9 9 8 8 8 8 7 7 7 7 7 7
2 1 1 1 1 3 5 5 6 7 6 4 4 5 5 5 4 4 5 6 6 6 7 9 9 10 10 10 11 10 10 10 10 9 9 9 8 8 8 8 9 8 8 8 8 7 7 7 7
2 1 0 2 6 6 5 6 6 7 5 4 5 7 5 5 3 5 6 6 7 7 8 9 9 10 10 10 10 10 10 9 9 9 8 8 8 9 8 8 9 9 9 8 8 7 7 7 7
1 1 2 3 5 6 6 5 5 5 4 5 5 7 6 5 6 7 7 7 7 8 8 10 10 10 10 10 10 10 10 9 9 9 9 8 8 9 8 9 8 9 9 9 8 9 8 8 8
1 1 2 4 6 5 5 4 5 6 7 6 6 6 5 5 7 7 8 8 8 8 8 9 10 9 9 10 9 9 10 10 10 9 9 9 9 9 9 9 9 9 9 9 9 10 9 9 9
0 1 3 4 6 5 4 4 4 6 6 5 3 5 5 6 6 7 8 8 8 8 8 8 9 10 10 10 10 10 10 10 10 9 9 9 9 9 8 9 9 9 9 10 10 10 10 10 11
1 1 4 3 4 4 4 4 4 4 5 4 2 4 6 7 7 8 8 8 7 7 7 8 8 8 8 10 10 9 9 9 9 9 8 7 7 7 7 8 9 9 9 9 10 10 10 10 11
2 2 3 3 3 4 5 5 4 4 6 5 4 5 7 11 10 9 8 7 7 7 7 7 7 7 7 7 8 7 7 7 5 7 6 3 5 6 6 10 9 9 9 9 10 10 9 9 10
1 1 3 3 3 5 5 4 5 5 6 6 7 8 10 10 10 9 8 8 7 7 6 6 5 6 6 6 6 5 5 5 5 5 5 5 5 5 6 9 8 8 8 9 9 7 6 3 6
2 3 4 4 4 5 5 4 3 4 4 5 8 11 11 10 9 8 8 7 6 6 6 5 5 5 5 4 4 4 4 4 5 5 5 4 4 4 4 4 5 5 4 6 6 4 6 6 6
4 5 4 4 4 4 4 4 4 3 4 5 8 11 12 10 9 8 8 7 6 6 5 5 4 4 4 4 4 3 3 3 3 4 4 4 3 3 4 3 4 4 4 5 5 5 6 7 7
5 5 5 5 5 5 6 5 4 5 5 7 9 10 11 10 9 8 7 7 6 5 5 4 4 3 4 4 3 3 3 3 3 3 3 4 3 3 3 4 4 4 4 4 5 5 7 7 7
6 7 6 5 5 5 6 5 4 5 6 8 9 9 9 9 8 8 7 6 6 6 5 4 3 3 2 3 2 3 3 2 3 3 3 3 3 3 3 4 4 4 4 5 5 6 5 5 6
8 7 5 4 3 4 4 4 4 5 7 8 8 9 9 8 8 7 6 6 6 5 5 5 3 3 3 3 3 3 2 3 3 3 3 4 3 3 3 3 4 4 4 5 5 6 5 5 6
3 3 3 2 2 3 3 2 4 5 7 7 8 8 8 8 7 7 7 6 5 5 6 5 4 3 3 3 2 3 3 3 3 3 3 3 3 3 3 3 4 4 4 4 4 4 4 4 4
2 2 2 2 2 2 2 2 5 6 7 7 7 8 9 9 8 7 8 7 6 6 6 6 5 4 3 3 3 3 3 3 3 3 3 3 3 3 3 2 2 3 3 3 3 3 3 4 4
2 2 2 2 2 2 3 3 4 7 7 7 8 8 9 9 10 9 8 7 7 6 6 6 5 4 4 3 2 3 3 3 3 4 3 4 3 3 3 2 2 3 3 3 3 4 4 3 3
1 2 2 1 1 2 3 4 5 7 8 8 8 9 9 10 10 9 9 8 7 7 7 7 6 5 4 3 2 2 2 2 3 3 4 3 3 3 3 2 2 2 2 2 3 3 4 3 2
3 3 2 1 1 2 3 5 5 8 9 9 9 9 10 10 10 10 10 9 8 8 8 7 7 6 5 3 2 2 2 2 3 3 3 3 3 3 3 2 2 2 2 3 3 2 2 2 0
3 3 2 2 2 3 3 4 6 7 9 8 9 9 10 11 12 12 11 10 9 8 8 7 7 7 6 5 3 2 2 2 3 3 3 3 4 4 3 3 2 2 2 2 2 2 2 1 1
2 2 3 3 4 2 4 2 3 6 8 10 11 11 11 12 12 12 12 11 10 10 8 8 7 7 6 5 4 3 2 2 2 2 2 3 4 4 4 3 3 2 2 2 1 1 0 1 0
1 2 3 4 4 4 4 4 1 5 6 10 12 13 12 13 14 13 13 12 11 10 9 8 8 7 6 5 4 3 2 2 3 3 3 3 4 4 4 3 3 2 2 2 1 1 0 0 1
3 3 3 4 5 3 2 3 0 3 5 6 10 13 13 14 14 14 13 12 11 10 9 8 8 7 6 6 5 4 3 3 3 3 3 3 3 3 4 3 3 3 2 2 2 1 1 1 1
4 3 3 3 3 1 0 3 1 0 2 4 7 11 13 14 15 15 14 13 12 11 10 9 9 8 7 7 6 5 4 4 3 3 3 3 3 3 3 3 2 3 3 3 2 2 1 1 1
5 4 3 2 1 0 2 2 0 1 1 3 5 8 11 14 15 15 15 14 13 12 12 11 10 9 8 7 6 5 5 3 3 3 2 3 2 2 3 3 3 3 3 3 2 2 2 2 1
4 4 3 3 3 2 1 1 1 1 1 2 4 8 11 13 15 15 15 14 13 13 12 12 11 10 9 8 7 6 6 5 4 3 3 3 2 2 3 3 3 3 3 2 2 2 2 2 2
3 2 3 3 2 2 1 1 0 0 1 1 4 7 10 12 14 15 14 14 14 13 12 12 12 11 10 9 7 6 6 5 4 3 4 3 3 3 3 3 3 3 3 3 2 2 2 2 3
5 4 4 2 3 2 1 1 2 2 2 1 3 5 8 11 13 13 13 14 13 13 12 12 12 11 10 10 8 8 7 6 5 4 4 4 3 3 3 3 3 3 3 3 3 2 2 2 2
7 6 6 4 2 3 3 1 2 1 1 1 2 4 6 9 11 12 12 12 13 13 13 13 13 12 11 10 9 8 7 7 6 5 5 4 4 3 3 3 3 3 2 2 2 2 2 2 2
Wind_Direction
193 175 191 212 208 158 90 91 102 108 97 82 89 95 87 59 42 77 93 103 101 102 103 105 99 99 100 101 99 96 94 91 88 86 86 84 82 81 78 76 73 74 76 78 78 76 72 69 68
202 176 209 230 223 142 100 89 96 84 100 113 94 90 83 72 61 86 103 107 110 106 107 99 99 99 100 99 96 96 93 90 88 85 83 80 77 76 75 74 73 74 77 78 77 75 71 67 67
159 222 264 240 101 87 99 96 96 98 106 112 95 73 67 73 81 88 102 119 114 105 103 99 101 98 97 97 95 95 91 86 83 81 80 76 74 74 72 73 73 73 75 74 72 72 69 67 68
198 192 210 98 88 71 89 105 111 120 106 90 108 91 79 59 70 100 113 119 112 105 102 99 98 96 96 98 96 91 87 85 83 81 80 78 76 77 74 73 73 74 75 72 72 74 75 72 72
235 215 135 106 88 84 88 98 115 114 104 92 101 99 88 67 82 109 116 112 107 101 97 98 95 94 96 94 91 86 82 82 82 79 76 74 74 74 75 72 71 72 74 72 71 73 76 74 73
194 201 154 123 106 99 98 107 120 105 104 101 99 102 91 97 107 112 114 108 101 96 95 101 98 89 93 92 86 82 78 77 79 76 72 71 70 69 71 72 72 73 75 75 75 74 76 74 74
258 131 114 120 122 115 105 110 113 112 107 95 101 105 111 118 116 119 114 107 101 98 95 93 99 100 100 94 83 79 75 74 73 71 69 69 70 69 71 73 72 74 77 78 78 77 78 78 76
332 143 129 124 128 114 119 118 100 98 101 98 95 113 128 135 131 126 117 111 106 103 101 97 90 91 93 98 86 75 70 68 70 70 67 72 89 88 88 88 74 74 77 81 79 78 80 81 77
258 176 136 125 130 121 132 131 110 105 112 102 84 90 116 134 138 133 125 118 110 104 103 101 98 89 84 86 87 85 81 71 80 86 79 71 80 85 94 71 73 75 79 82 80 81 84 89 87
278 137 94 88 107 123 130 126 129 137 123 116 112 109 127 140 145 141 137 130 125 120 114 108 103 95 89 83 87 74 69 64 58 61 67 65 68 68 76 91 82 81 89 94 87 93 107 100 86
58 87 101 96 105 123 126 120 127 140 128 136 138 138 139 142 146 142 137 133 128 127 122 116 107 98 91 90 76 65 64 67 65 62 71 71 78 90 84 93 102 97 102 92 100 102 77 74 67
98 84 97 106 110 123 124 124 117 101 92 108 134 142 146 148 147 144 139 134 131 128 123 117 112 107 97 87 77 68 71 67 62 62 59 63 65 69 73 74 76 80 78 77 81 76 76 74 72
105 103 93 96 99 105 112 114 112 110 111 120 132 145 151 149 147 146 141 138 138 136 132 123 121 106 95 82 70 74 66 54 71 61 57 62 63 69 73 77 81 79 86 94 83 78 75 69 65
107 109 107 105 106 113 115 113 122 119 127 136 143 150 151 149 150 145 147 149 150 143 136 134 130 110 95 95 86 69 61 65 59 61 61 65 67 69 68 79 81 79 82 85 87 83 84 79 72
123 119 113 111 116 126 126 120 126 132 144 150 155 156 157 158 160 159 161 162 155 146 147 145 138 122 108 90 78 77 65 76 70 58 50 61 60 68 71 80 87 87 93 96 90 88 84 85 82
150 154 138 122 138 166 204 147 140 150 159 160 164 166 173 175 177 172 172 167 158 159 155 152 150 135 111 96 91 89 74 67 64 56 38 49 55 62 74 83 89 95 98 99 96 97 93 88 81
184 174 154 144 145 178 209 171 161 170 176 173 176 179 184 183 185 179 174 170 168 171 165 163 159 149 126 107 100 87 85 70 64 58 43 37 48 58 84 82 91 105 106 104 104 97 95 92 86
175 188 184 178 144 194 209 202 181 186 192 190 187 189 191 191 188 179 175 177 177 177 172 166 160 155 139 127 115 107 93 84 73 58 51 46 47 54 81 103 104 107 113 108 106 106 97 94 89
190 193 170 143 140 216 222 225 210 197 201 203 201 200 199 197 188 178 178 181 182 179 177 173 170 160 155 148 151 130 108 102 82 63 55 54 53 53 71 99 102 96 107 118 126 119 118 113 107
188 181 170 160 187 238 251 249 226 206 209 208 207 208 207 197 188 181 185 186 187 182 184 180 177 173 170 165 154 128 112 99 77 73 65 49 52 53 63 86 104 107 117 134 141 145 141 128 177
205 215 202 203 211 216 256 245 214 203 210 210 213 214 210 201 194 186 188 188 187 185 185 185 181 179 177 166 149 134 130 134 106 91 79 54 52 58 60 66 78 96 122 129 144 164 176 174 154
203 214 216 216 233 227 244 270 196 195 205 212 212 211 209 201 197 190 188 189 189 189 187 188 185 185 179 175 177 168 164 136 113 109 97 86 70 68 64 71 73 87 87 115 148 157 214 245 231
164 178 214 238 258 254 235 259 183 180 211 215 213 210 207 202 198 193 191 191 191 187 187 189 184 186 181 185 184 197 176 133 122 121 111 100 84 75 75 72 73 81 86 98 98 104 281 269 321
157 178 207 228 249 257 251 252 265 187 225 217 207 206 205 199 196 195 192 190 189 185 186 185 183 181 180 187 188 191 163 150 141 138 128 120 104 92 85 77 75 76 79 85 82 95 105 13 7
203 232 229 211 213 249 82 252 268 56 237 232 214 202 200 196 194 193 191 191 189 187 187 185 182 183 184 187 186 182 172 170 159 150 142 134 117 103 92 88 81 78 77 81 81 91 72 67 25
209 241 278 288 284 329 208 248 351 14 256 237 216 199 192 192 193 192 192 192 191 189 188 186 187 187 184 187 186 181 174 179 159 153 148 142 122 103 103 98 91 85 83 87 83 74 69 61 68
210 226 274 284 281 270 223 224 249 204 211 198 193 190 191 191 191 192 192 193 192 190 190 190 190 189 188 188 187 183 179 181 171 164 151 135 124 113 113 117 111 103 96 85 89 78 81 70 57
257 222 222 251 277 267 249 229 316 334 306 200 192 192 190 189 190 191 192 192 193 191 191 193 193 192 188 188 187 183 181 178 172 167 157 152 142 133 135 131 127 120 111 100 91 87 71 81 72
197 209 227 233 271 291 299 75 34 326 309 249 206 196 187 188 189 188 189 192 192 189 190 193 194 192 188 189 188 183 179 177 175 172 163 159 154 156 154 151 147 136 128 118 108 95 92 81 83
228 231 228 242 230 257 281 322 65 330 283 248 215 190 182 185 186 185 186 186 189 191 193 194 194 192 189 188 186 184 179 178 182 177 170 168 164 165 163 155 155 146 140 132 128 121 112 88 70
Height
1518 1518 1519 1521 1520 1518 1522 1523 1521 1523 1525 1528 1528 1528 1529 1531 1534 1541 1542 1540 1541 1542 1542 1542 1542 1542 1543 1543 1543 1543 1543 1543 1544 1544 1544 1544 1543 1543 1543 1543 1542 1542 1542 1542 1542 1542 1542 1542 1542
1519 1519 1521 1520 1516 1520 1524 1522 1523 1525 1528 1530 1531 1531 1532 1536 1538 1540 1540 1541 1542 1543 1543 1543 1543 1543 1544 1544 1544 1544 1545 1545 1545 1545 1545 1545 1545 1544 1544 1544 1543 1543 1543 1543 1543 1543 1543 1543 1543
1519 1519 1521 1517 1516 1518 1524 1523 1525 1528 1530 1530 1532 1533 1535 1539 1540 1541 1542 1542 1543 1544 1544 1544 1544 1545 1545 1545 1545 1546 1546 1546 1546 1546 1546 1546 1546 1545 1545 1545 1544 1544 1544 1544 1544 1544 1544 1544 1544
1520 1521 1521 1518 1520 1521 1522 1525 1527 1529 1531 1532 1532 1535 1539 1541 1542 1542 1542 1543 1544 1545 1545 1545 1546 1546 1546 1546 1546 1547 1547 1547 1547 1547 1547 1547 1547 1547 1546 1546 1546 1545 1545 1545 1545 1545 1545 1545 1545
1520 1521 1519 1521 1522 1523 1525 1527 1528 1529 1531 1533 1534 1536 1540 1543 1542 1543 1543 1544 1545 1546 1547 1547 1547 1547 1548 1548 1548 1548 1548 1548 1548 1548 1548 1548 1548 1548 1548 1548 1547 1547 1546 1546 1546 1545 1545 1546 1546
1522 1519 1521 1524 1525 1526 1528 1529 1530 1530 1533 1535 1536 1538 1542 1544 1544 1545 1545 1546 1547 1548 1548 1549 1549 1548 1549 1549 1550 1550 1550 1550 1550 1550 1550 1550 1550 1549 1549 1549 1548 1548 1548 1547 1547 1546 1546 1547 1547
1522 1519 1521 1524 1527 1528 1530 1531 1531 1532 1534 1536 1538 1539 1543 1545 1546 1546 1546 1547 1548 1549 1550 1551 1552 1551 1550 1550 1551 1551 1551 1552 1552 1552 1552 1551 1551 1551 1551 1551 1550 1550 1549 1549 1548 1548 1548 1548 1548
1522 1520 1522 1524 1527 1529 1531 1532 1533 1534 1536 1538 1539 1540 1543 1546 1546 1547 1548 1549 1550 1551 1551 1553 1553 1554 1554 1554 1553 1553 1554 1554 1554 1553 1553 1553 1553 1553 1552 1552 1552 1551 1551 1550 1550 1549 1549 1549 1549
1522 1522 1524 1526 1527 1529 1531 1532 1535 1537 1537 1539 1540 1542 1544 1546 1547 1549 1550 1551 1552 1552 1553 1554 1555 1555 1555 1556 1555 1556 1556 1555 1555 1555 1555 1555 1556 1556 1555 1554 1553 1553 1552 1552 1551 1551 1551 1550 1550
1522 1522 1525 1526 1526 1528 1531 1533 1535 1536 1538 1540 1542 1543 1545 1546 1548 1549 1551 1552 1553 1554 1555 1556 1556 1557 1557 1557 1558 1558 1558 1557 1557 1557 1557 1557 1557 1556 1556 1555 1555 1554 1554 1553 1553 1553 1553 1553 1553
1523 1524 1527 1528 1529 1530 1532 1534 1536 1536 1537 1540 1541 1544 1546 1548 1549 1551 1552 1553 1555 1556 1557 1557 1558 1558 1559 1559 1559 1559 1559 1559 1559 1559 1558 1558 1558 1558 1558 1558 1557 1556 1556 1556 1555 1555 1556 1555 1554
1526 1528 1529 1530 1532 1532 1533 1534 1536 1538 1540 1541 1542 1544 1546 1548 1550 1552 1553 1555 1556 1557 1558 1559 1559 1560 1561 1561 1561 1561 1561 1561 1560 1560 1560 1560 1560 1559 1559 1559 1558 1558 1557 1557 1557 1557 1557 1557 1556
1527 1530 1532 1533 1533 1534 1535 1536 1538 1540 1541 1542 1544 1545 1547 1549 1551 1553 1554 1556 1557 1558 1559 1560 1561 1561 1562 1562 1562 1562 1562 1562 1562 1561 1561 1561 1561 1561 1560 1560 1559 1559 1559 1558 1558 1559 1558 1558 1557
1530 1531 1533 1534 1534 1535 1536 1537 1539 1541 1543 1544 1545 1547 1548 1550 1552 1554 1555 1557 1558 1559 1560 1561 1562 1562 1562 1563 1563 1563 1563 1562 1562 1562 1562 1562 1562 1562 1561 1561 1560 1560 1560 1560 1560 1560 1559 1559 1558
1531 1532 1534 1535 1535 1536 1537 1538 1539 1542 1543 1545 1546 1547 1549 1550 1552 1554 1555 1557 1559 1560 1561 1562 1562 1563 1563 1563 1564 1564 1564 1564 1563 1563 1563 1563 1563 1562 1562 1562 1561 1561 1561 1561 1561 1561 1561 1560 1560
1530 1531 1534 1535 1535 1536 1538 1540 1540 1542 1544 1545 1546 1548 1549 1551 1553 1555 1556 1557 1559 1560 1561 1562 1563 1563 1564 1564 1564 1565 1565 1564 1564 1564 1563 1564 1563 1563 1563 1562 1562 1562 1562 1562 1562 1562 1562 1562 1561
1531 1533 1534 1535 1535 1535 1535 1537 1539 1542 1543 1544 1546 1547 1549 1551 1553 1554 1556 1557 1559 1560 1561 1562 1563 1564 1564 1565 1565 1565 1565 1565 1565 1564 1564 1564 1564 1564 1563 1563 1563 1563 1562 1563 1563 1563 1563 1563 1562
1532 1532 1533 1534 1533 1534 1535 1535 1537 1540 1542 1543 1545 1546 1548 1550 1552 1554 1555 1557 1559 1560 1561 1562 1563 1564 1565 1565 1566 1566 1565 1565 1565 1565 1565 1564 1564 1564 1564 1563 1563 1563 1563 1563 1563 1563 1563 1563 1563
1528 1530 1533 1533 1533 1535 1534 1534 1534 1538 1540 1541 1542 1544 1546 1548 1550 1552 1554 1556 1558 1560 1561 1563 1564 1565 1565 1566 1566 1566 1566 1566 1566 1565 1565 1565 1565 1564 1564 1564 1564 1564 1564 1564 1564 1564 1564 1564 1564
1530 1532 1533 1533 1533 1534 1533 1532 1531 1534 1536 1538 1540 1541 1543 1546 1548 1551 1553 1555 1557 1559 1561 1562 1564 1565 1565 1566 1566 1567 1567 1567 1566 1566 1566 1565 1565 1565 1565 1564 1564 1564 1564 1564 1565 1565 1565 1565 1565
1530 1531 1532 1533 1533 1532 1533 1530 1528 1530 1534 1536 1538 1539 1541 1543 1546 1549 1551 1554 1556 1558 1560 1561 1563 1564 1565 1566 1566 1567 1567 1567 1567 1567 1566 1566 1566 1565 1565 1565 1565 1565 1565 1565 1565 1565 1565 1566 1566
1531 1529 1530 1532 1532 1532 1531 1533 1524 1525 1529 1532 1534 1536 1539 1541 1544 1547 1550 1552 1554 1557 1559 1561 1562 1564 1565 1566 1567 1567 1568 1568 1568 1567 1567 1567 1566 1566 1566 1566 1565 1565 1566 1565 1566 1566 1566 1566 1566
1529 1529 1529 1530 1529 1529 1527 1529 1523 1522 1525 1526 1529 1532 1535 1538 1541 1544 1547 1550 1553 1555 1557 1559 1561 1563 1564 1565 1566 1567 1568 1568 1568 1568 1568 1568 1567 1567 1566 1566 1566 1566 1566 1566 1566 1566 1566 1566 1567
1529 1530 1530 1529 1528 1533 1526 1527 1525 1518 1519 1520 1523 1527 1531 1535 1538 1542 1545 1548 1551 1554 1556 1558 1560 1562 1563 1565 1566 1567 1567 1568 1568 1568 1568 1568 1568 1568 1567 1567 1567 1567 1567 1567 1567 1567 1567 1567 1567
1529 1532 1536 1535 1535 1531 1523 1526 1522 1513 1515 1517 1520 1523 1527 1531 1535 1539 1542 1545 1549 1551 1554 1556 1559 1561 1563 1564 1565 1566 1567 1568 1568 1568 1568 1569 1569 1569 1568 1568 1568 1568 1567 1567 1567 1567 1567 1567 1567
1526 1527 1536 1540 1536 1528 1524 1524 1515 1513 1515 1517 1518 1521 1524 1528 1532 1536 1539 1543 1546 1549 1552 1555 1557 1560 1562 1563 1565 1566 1567 1568 1568 1568 1569 1569 1569 1569 1569 1568 1568 1568 1568 1568 1568 1568 1568 1568 1568
1524 1524 1523 1528 1527 1529 1522 1517 1512 1511 1513 1515 1517 1519 1522 1525 1529 1533 1536 1540 1544 1547 1550 1553 1556 1558 1560 1562 1564 1565 1566 1567 1568 1568 1569 1569 1569 1569 1569 1569 1569 1569 1569 1568 1568 1568 1568 1568 1568
1521 1521 1525 1529 1535 1534 1526 1520 1516 1511 1511 1512 1514 1517 1519 1523 1527 1530 1534 1537 1541 1545 1548 1551 1554 1557 1559 1561 1563 1564 1565 1566 1567 1568 1568 1569 1569 1569 1570 1570 1569 1569 1569 1569 1569 1569 1568 1568 1568
1523 1523 1522 1524 1526 1531 1532 1523 1509 1510 1510 1511 1513 1515 1518 1521 1524 1527 1531 1535 1539 1542 1546 1549 1552 1555 1557 1559 1561 1563 1564 1565 1567 1567 1568 1568 1569 1569 1570 1570 1570 1570 1570 1570 1569 1569 1569 1569 1569
1517 1517 1519 1525 1526 1524 1526 1522 1507 1509 1510 1511 1512 1514 1516 1519 1522 1525 1529 1532 1536 1539 1543 1546 1550 1552 1555 1557 1559 1561 1563 1564 1566 1567 1567 1568 1569 1569 1570 1570 1570 1570 1570 1570 1570 1569 1569 1569 1569